Wind_Speed
38 38 36 36 38 38 39 39 38 37 38 40 39 39 37 35 35 35 33 32 32 32 32 33 34 34 35 36 36 37 37 37 37 38 38 39 39 40 40 41 42 43 44 45
40 39 37 39 39 39 40 40 40 39 40 41 40 39 37 36 37 36 34 34 34 35 35 36 36 37 37 38 38 39 39 40 40 41 42 42 42 43 43 44 45 45 46 47
40 39 38 39 39 40 39 39 39 40 40 41 43 42 37 37 38 38 38 39 39 39 39 38 38 39 39 39 40 41 42 43 43 44 45 46 46 47 47 48 48 49 50 50
37 36 37 37 36 37 37 38 39 39 41 42 43 46 42 42 42 42 42 43 43 43 43 42 41 40 40 40 41 41 43 44 45 46 47 48 49 50 51 52 53 53 54 54
34 34 34 34 34 36 36 37 39 41 43 46 45 48 48 48 47 46 46 46 46 46 45 45 45 44 43 42 41 42 43 45 46 48 49 51 52 53 54 55 56 57 58 59
34 34 34 34 35 37 39 40 42 44 46 49 47 49 51 51 50 49 49 48 47 47 46 47 47 47 47 46 44 44 44 46 48 50 53 55 56 57 58 59 60 61 62 63
36 36 37 37 38 40 41 42 45 48 49 50 50 52 52 51 50 50 49 49 49 48 49 49 50 50 50 50 49 48 48 49 51 53 56 59 61 63 64 65 65 66 66 67
39 39 39 40 41 42 43 44 45 49 51 52 52 54 53 51 50 49 49 50 50 51 52 53 54 54 54 54 54 53 53 54 55 57 60 63 66 68 70 71 72 73 73 72
40 42 42 43 43 44 45 46 47 50 52 53 54 54 52 50 49 49 50 52 53 54 55 56 57 57 58 58 58 58 58 59 60 61 64 66 69 72 74 76 77 78 79 79
42 45 46 46 46 46 46 47 49 50 53 54 54 53 52 50 50 51 52 54 55 56 58 59 60 61 61 62 62 63 63 64 65 67 68 70 73 75 77 79 81 81 82 83
45 46 48 49 47 47 48 48 50 52 54 56 55 54 54 53 53 54 55 56 57 59 61 62 63 65 66 67 67 69 69 70 71 71 73 74 76 78 80 81 83 83 83 84
46 47 48 48 48 48 49 49 50 53 55 57 59 57 55 54 55 56 57 59 61 63 64 65 66 68 69 70 71 73 73 74 75 76 77 77 79 80 82 83 85 85 86 86
48 50 50 50 50 50 50 50 52 55 58 60 61 60 56 56 58 59 61 63 64 65 67 68 69 70 72 73 75 76 77 79 80 81 82 83 84 85 86 88 90 91 92 92
52 53 53 52 51 52 52 53 56 59 61 62 62 61 59 59 61 63 65 66 67 68 69 71 72 74 75 77 78 80 81 83 84 85 86 88 88 89 91 92 94 95 96 97
54 55 55 54 54 56 56 57 60 62 62 64 62 62 61 60 63 64 65 66 68 69 71 72 74 76 77 79 81 83 84 86 87 87 88 89 89 90 90 91 92 93 93 94
56 57 58 58 58 60 60 59 61 62 63 64 64 65 62 64 65 66 67 68 70 71 73 74 76 78 79 81 82 83 84 85 85 84 84 83 83 82 81 82 82 83 84 85
59 59 60 60 61 63 65 60 60 63 63 64 65 65 65 66 67 68 69 70 72 73 74 76 78 79 80 80 81 80 80 79 78 76 74 73 72 72 72 73 73 75 76 77
59 59 61 62 64 68 64 61 62 63 63 65 66 66 67 68 69 70 71 72 74 75 77 78 78 78 77 76 75 73 72 70 68 67 66 66 67 68 69 70 71 72 73 74
59 60 62 64 67 69 63 61 62 65 66 65 66 67 69 70 71 71 73 74 76 76 76 76 75 73 71 68 66 64 63 63 63 63 64 65 66 68 69 70 71 72 73 73
59 60 62 65 67 69 61 60 63 65 66 63 66 68 70 71 72 72 74 75 75 74 73 70 67 65 62 60 60 60 60 60 61 62 63 65 66 67 69 70 71 72 73 72
59 60 61 63 66 66 61 62 63 65 65 66 67 69 70 72 73 74 75 74 72 69 65 62 59 57 56 56 56 57 58 59 60 61 62 64 66 67 69 69 70 69 68 66
58 59 60 62 65 65 61 64 65 65 66 68 70 71 73 74 74 73 72 69 65 61 58 54 53 52 53 54 55 56 57 58 59 60 62 63 65 67 67 66 64 62 60 57
58 58 60 64 65 66 67 67 66 67 69 70 71 72 73 73 71 69 66 62 58 55 52 50 50 51 52 53 55 56 57 57 58 60 61 63 64 64 63 61 57 54 52 50
57 58 63 66 66 67 68 68 68 69 69 70 69 69 69 68 66 63 59 55 52 50 49 49 50 51 52 54 55 56 56 57 58 60 61 61 61 59 57 53 50 48 46 45
58 61 65 68 67 68 68 68 68 68 68 67 65 63 62 61 59 56 53 51 49 48 48 49 50 52 53 55 56 56 57 58 59 60 60 59 57 54 50 47 44 43 41 41
59 62 65 66 64 65 66 65 65 64 62 60 58 57 56 55 54 52 50 49 48 48 49 50 51 53 54 56 57 57 57 58 59 58 57 55 53 49 45 41 39 40 39 39
Wind_Direction
276 277 278 278 278 280 281 282 284 285 284 285 287 288 289 291 290 289 290 290 288 287 286 286 285 285 284 283 281 280 278 275 272 270 269 267 266 265 263 262 262 262 262 263
276 276 276 276 277 278 279 281 283 284 284 285 286 286 289 290 290 292 293 292 290 289 288 287 286 285 284 283 282 280 279 277 274 271 269 267 266 265 264 263 262 261 261 262
273 274 274 274 275 277 278 280 281 282 284 285 287 288 289 289 290 292 292 292 291 290 289 288 286 285 284 283 281 280 279 277 275 273 270 268 267 265 264 264 262 261 261 261
270 271 273 274 275 276 278 280 281 283 284 285 287 289 291 290 291 292 293 293 293 293 292 291 289 288 286 285 283 281 279 277 275 272 270 268 267 266 265 264 263 262 261 261
271 271 272 274 276 278 279 280 281 283 284 285 288 290 291 293 294 295 295 295 294 294 294 293 293 292 290 288 284 281 278 275 272 270 269 268 266 266 265 264 263 262 262 262
272 274 275 276 277 279 281 281 282 282 283 284 288 288 289 291 294 295 295 294 294 293 293 292 292 291 290 288 285 280 276 272 269 267 266 265 265 265 265 264 264 263 262 262
272 274 275 277 278 279 280 281 282 282 283 285 286 286 288 290 292 292 291 291 291 291 290 290 290 289 288 287 284 280 277 273 269 266 264 263 263 263 264 264 264 264 263 263
274 274 276 277 278 279 279 280 281 282 283 284 285 286 288 290 289 288 288 288 288 288 288 288 288 288 287 286 284 281 278 274 271 267 264 262 262 262 262 264 265 265 265 265
275 275 275 276 278 278 280 280 280 278 280 281 282 285 286 287 285 283 283 284 284 285 285 285 285 285 285 284 283 281 278 275 272 269 266 264 263 263 263 264 264 265 266 266
275 276 277 279 279 279 279 279 278 278 279 280 282 284 286 284 282 281 281 282 282 282 283 284 284 284 283 282 281 279 277 275 273 271 269 268 267 266 266 266 266 267 267 267
273 275 278 279 281 281 279 279 279 278 278 279 281 284 285 283 282 281 280 280 280 280 281 281 282 281 281 281 280 279 278 277 276 275 273 272 271 270 269 269 269 269 269 269
275 276 277 279 280 279 280 281 279 277 278 277 278 282 284 281 279 278 278 277 278 278 279 280 280 280 280 280 280 280 280 280 279 278 277 276 275 274 273 273 273 272 272 271
278 278 280 280 280 281 280 280 278 275 273 273 275 280 282 279 277 276 276 277 278 279 280 281 281 282 282 283 283 283 283 282 282 281 280 279 278 277 276 275 275 274 273 272
279 280 281 282 281 280 279 279 276 273 272 274 275 278 278 278 277 277 279 280 282 283 284 284 285 285 285 286 285 285 285 284 283 283 282 280 279 278 277 276 275 274 274 273
280 280 281 280 278 277 277 279 276 274 275 275 277 277 278 279 279 280 282 283 284 285 286 286 287 287 287 287 286 286 285 284 284 283 282 282 281 280 279 278 277 277 276 275
278 278 278 277 276 274 274 277 275 274 275 277 277 278 279 278 280 282 283 284 285 286 287 288 288 288 288 288 287 287 286 285 285 284 284 283 283 283 282 282 281 280 280 279
276 275 275 274 273 271 273 279 275 273 274 276 277 279 279 280 281 283 284 285 286 287 288 289 289 290 289 289 288 287 286 286 286 286 286 286 286 286 286 286 285 284 283 282
274 273 271 271 270 269 278 274 273 274 274 276 278 280 281 282 283 285 286 288 289 290 291 291 291 290 289 288 287 286 286 286 287 288 288 289 289 289 289 289 288 287 287 286
272 270 270 269 270 272 274 277 277 275 275 277 280 281 283 285 286 289 290 291 292 292 292 291 290 289 288 287 286 286 286 287 288 289 290 291 291 291 291 291 291 290 290 289
269 269 269 271 272 275 279 277 276 277 278 280 281 283 285 287 289 291 291 292 293 292 291 290 289 288 286 286 285 286 287 288 289 291 292 292 293 293 294 294 294 293 293 292
268 268 270 272 275 277 281 281 280 280 283 283 283 285 286 288 290 291 292 293 292 291 290 289 288 286 285 284 285 286 287 289 291 292 293 294 295 296 296 297 297 297 297 297
268 269 272 274 276 280 281 279 282 285 285 286 287 288 289 290 291 292 292 291 291 290 289 288 286 285 284 285 286 287 289 291 293 294 295 297 298 299 299 300 301 301 301 300
269 272 274 274 276 279 280 282 284 285 286 287 288 289 290 290 290 290 290 290 290 289 288 286 285 285 285 286 288 290 291 293 294 296 297 299 300 300 301 302 303 303 303 302
270 272 273 275 277 279 281 282 284 285 286 287 287 288 288 288 289 289 289 289 288 287 286 286 286 286 287 288 290 291 293 294 296 297 298 299 300 301 302 303 303 304 304 305
271 273 275 277 279 280 280 283 284 285 286 287 287 287 286 287 288 289 288 288 287 286 286 286 286 286 288 289 291 293 294 295 296 297 298 299 299 300 301 302 302 304 305 308
275 277 277 279 280 281 282 283 284 285 286 286 285 285 285 286 287 287 287 287 286 286 286 285 286 287 288 290 291 293 294 295 296 297 297 298 299 299 298 298 300 304 307 311
Height
5815 5816 5816 5816 5814 5814 5813 5812 5812 5813 5812 5810 5809 5808 5808 5807 5805 5805 5805 5804 5803 5801 5800 5798 5797 5795 5794 5793 5791 5790 5789 5788 5787 5786 5785 5784 5783 5783 5782 5781 5780 5780 5779 5778
5807 5806 5808 5806 5805 5805 5804 5803 5803 5803 5802 5800 5799 5799 5799 5798 5796 5795 5795 5794 5793 5791 5790 5789 5788 5786 5785 5784 5782 5781 5779 5778 5776 5775 5774 5773 5772 5771 5771 5770 5769 5768 5767 5767
5796 5797 5797 5796 5796 5795 5795 5794 5794 5793 5792 5790 5789 5789 5791 5788 5786 5785 5784 5782 5781 5780 5779 5778 5777 5776 5775 5773 5772 5770 5769 5767 5765 5764 5763 5762 5761 5759 5759 5757 5756 5756 5755 5754
5786 5787 5787 5786 5786 5786 5786 5785 5784 5783 5781 5781 5780 5777 5780 5778 5777 5775 5773 5771 5769 5767 5766 5765 5764 5763 5762 5761 5760 5759 5757 5755 5753 5751 5750 5749 5747 5746 5745 5743 5742 5741 5741 5740
5777 5777 5777 5777 5777 5776 5776 5775 5775 5773 5771 5770 5770 5768 5768 5765 5764 5762 5760 5757 5755 5753 5752 5750 5749 5748 5747 5746 5746 5745 5743 5742 5740 5738 5736 5734 5733 5731 5730 5728 5727 5726 5725 5724
5767 5767 5768 5768 5767 5767 5766 5765 5763 5762 5761 5760 5761 5758 5757 5754 5752 5750 5746 5744 5741 5739 5738 5736 5734 5733 5732 5731 5730 5729 5728 5726 5725 5723 5721 5719 5717 5715 5713 5712 5710 5709 5708 5707
5757 5757 5757 5757 5757 5757 5756 5755 5752 5750 5749 5750 5749 5746 5747 5745 5742 5738 5734 5731 5728 5726 5724 5722 5720 5718 5717 5715 5714 5712 5711 5709 5708 5706 5704 5702 5700 5698 5696 5694 5692 5690 5689 5688
5746 5747 5747 5746 5746 5745 5744 5743 5742 5739 5737 5736 5735 5733 5735 5733 5729 5726 5722 5719 5716 5714 5711 5708 5705 5703 5701 5699 5697 5695 5693 5691 5690 5688 5686 5684 5681 5679 5677 5675 5673 5671 5669 5668
5734 5735 5735 5735 5734 5734 5732 5731 5729 5725 5723 5722 5723 5722 5722 5720 5717 5714 5710 5707 5704 5701 5698 5694 5691 5688 5685 5682 5680 5677 5675 5673 5671 5669 5667 5664 5662 5659 5657 5655 5653 5650 5648 5647
5722 5721 5722 5721 5721 5720 5720 5718 5714 5710 5707 5706 5708 5709 5708 5707 5704 5701 5697 5694 5690 5687 5683 5679 5676 5672 5669 5665 5662 5659 5656 5654 5651 5648 5646 5644 5641 5638 5636 5633 5631 5628 5626 5625
5710 5709 5709 5708 5708 5707 5705 5704 5700 5696 5691 5690 5690 5696 5694 5691 5688 5685 5682 5678 5675 5671 5667 5664 5660 5656 5652 5648 5644 5640 5637 5634 5631 5628 5625 5622 5620 5617 5614 5611 5608 5606 5604 5602
5696 5695 5694 5695 5693 5692 5691 5690 5686 5681 5678 5674 5672 5679 5679 5676 5672 5669 5665 5662 5658 5655 5652 5648 5644 5639 5634 5630 5625 5621 5617 5613 5610 5607 5604 5601 5598 5595 5591 5588 5585 5582 5580 5578
5682 5680 5679 5678 5679 5678 5676 5675 5671 5665 5662 5658 5656 5662 5663 5660 5655 5651 5648 5644 5641 5638 5634 5630 5625 5620 5615 5610 5605 5600 5596 5592 5588 5584 5581 5577 5574 5571 5567 5563 5560 5557 5554 5552
5665 5664 5665 5665 5662 5660 5660 5660 5654 5649 5645 5643 5643 5645 5646 5641 5637 5633 5630 5627 5623 5619 5615 5610 5605 5600 5595 5590 5584 5579 5574 5569 5564 5560 5556 5552 5548 5544 5540 5536 5532 5528 5525 5523
5649 5647 5648 5648 5645 5643 5644 5644 5637 5631 5629 5626 5627 5626 5629 5624 5617 5615 5613 5609 5604 5600 5595 5591 5586 5580 5574 5569 5563 5557 5551 5545 5540 5536 5531 5526 5521 5516 5512 5508 5503 5499 5496 5493
5632 5631 5630 5630 5628 5624 5625 5629 5623 5618 5615 5610 5607 5607 5611 5604 5601 5598 5595 5590 5586 5581 5576 5571 5565 5559 5553 5547 5540 5533 5526 5520 5515 5510 5505 5500 5496 5491 5486 5481 5477 5473 5470 5466
5615 5614 5612 5612 5610 5604 5606 5615 5610 5603 5600 5596 5590 5591 5588 5585 5583 5580 5576 5572 5567 5562 5557 5551 5544 5537 5530 5523 5517 5510 5503 5498 5492 5488 5483 5478 5474 5469 5464 5459 5455 5451 5446 5443
5598 5596 5593 5591 5590 5585 5598 5597 5592 5586 5585 5580 5574 5572 5569 5566 5563 5561 5557 5552 5546 5541 5535 5529 5522 5515 5508 5501 5494 5489 5483 5478 5474 5469 5465 5460 5455 5450 5444 5439 5434 5429 5424 5419
5581 5578 5574 5571 5567 5566 5580 5580 5573 5565 5565 5566 5559 5554 5549 5546 5543 5542 5535 5530 5525 5519 5513 5507 5500 5493 5487 5481 5475 5471 5466 5462 5457 5453 5447 5442 5436 5431 5425 5419 5413 5407 5401 5396
5564 5561 5558 5554 5549 5548 5563 5560 5552 5545 5545 5550 5541 5536 5531 5527 5525 5523 5514 5509 5504 5498 5492 5486 5480 5474 5469 5464 5459 5455 5451 5447 5442 5437 5431 5424 5418 5412 5406 5399 5392 5385 5378 5372
5548 5544 5542 5538 5531 5531 5543 5536 5530 5529 5530 5525 5522 5518 5513 5510 5507 5502 5495 5489 5483 5477 5472 5467 5462 5457 5453 5448 5444 5440 5436 5431 5426 5420 5414 5407 5400 5393 5386 5379 5371 5363 5356 5350
5531 5529 5527 5523 5516 5521 5521 5513 5512 5510 5506 5503 5500 5497 5493 5490 5486 5481 5475 5469 5464 5459 5455 5450 5445 5441 5437 5433 5429 5425 5421 5416 5410 5404 5397 5390 5383 5375 5367 5360 5353 5344 5337 5331
5515 5517 5512 5506 5505 5503 5498 5495 5493 5489 5486 5483 5479 5476 5471 5468 5465 5461 5457 5452 5447 5443 5439 5435 5430 5426 5422 5418 5413 5409 5405 5400 5394 5388 5381 5374 5366 5358 5350 5343 5336 5329 5322 5315
5500 5500 5494 5489 5489 5486 5478 5475 5473 5469 5465 5463 5459 5456 5451 5447 5445 5443 5440 5436 5432 5428 5424 5420 5415 5410 5406 5402 5398 5393 5389 5384 5378 5372 5365 5358 5351 5343 5336 5329 5322 5316 5309 5303
5486 5484 5477 5470 5470 5465 5461 5458 5454 5449 5445 5442 5439 5436 5432 5428 5426 5425 5422 5420 5416 5413 5409 5405 5400 5396 5391 5387 5382 5378 5373 5368 5362 5355 5349 5342 5336 5330 5324 5318 5311 5304 5298 5291
5473 5467 5458 5452 5451 5443 5442 5442 5437 5431 5428 5425 5421 5418 5416 5413 5410 5408 5406 5404 5401 5397 5394 5390 5385 5381 5376 5371 5366 5362 5357 5351 5346 5340 5334 5328 5322 5317 5311 5307 5302 5294 5288 5281